Location: Bretagne
(43.8474°N, 0.4650°W)
Time: 05:37:41
(UTC+00:00)

Cosmos 1697 Rocket - Pass Details

Date: 15 January 2026
Orbit: 830 x 844 km, 71.0° (Epoch: 10 February)

Event Time Altitude Azimuth Distance (km) Brightness Sun altitude
Rises 18:02:26 0° 344° (NNW) 3,406 5.8 -12.8°
Reaches altitude 10° 18:05:43 10° 3° (N) 2,470 4.9 -13.4°
Maximum altitude 18:09:32 18° 46° (NE) 1,955 4.1 -14.1°
Enters shadow 18:09:59 18° 52° (NE) 1,963 4.1 -14.1°
